Hourly Data Report for December 06, 2017

CARBERRY CS
MANITOBA

49°54'20.900" N
99°21'26.800" W
383.50 m
5010547
71170
WZE

Download Data

Hourly Data (December 2017)
Hourly Data Report for December 6, 2017
TIME
LST
Temp Definition
°C
Dew Point Definition
°C
Rel Hum Definition
%
Precip. Amount Definition
mm

Wind Dir Definition
10's deg

Wind Spd Definition
km/h
Visibility Definition
km
Stn Press Definition
kPa
Hmdx Definition


Wind Chill Definition


Weather Definition


00:00 -12.8 -16.4 75 0.0 29 20   97.06   -21 LegendNANA
01:00 -13.2 -16.6 75 0.0 29 18   97.13   -21 LegendNANA
02:00 -13.0 -16.5 75 0.0 30 21   97.22   -22 LegendNANA
03:00 -13.0 -16.4 75 0.0 30 20   97.33   -22 LegendNANA
04:00 -13.7 -16.7 78 0.0 32 12   97.45   -20 LegendNANA
05:00 -12.4 -15.8 75 0.0 31 17   97.56   -20 LegendNANA
06:00 -11.7 -16.0 70 0.0 31 27   97.65   -21 LegendNANA
07:00 -11.2 -15.9 68 0.0 31 24   97.73   -20 LegendNANA
08:00 -11.0 -16.7 63 0.0 31 21   97.86   -19 LegendNANA
09:00 -10.8 -16.7 62 0.0 31 21   97.99   -19 LegendNANA
10:00 -11.3 -17.0 62 0.0 29 24   98.09   -20 LegendNANA
11:00 -10.9 -17.1 60 0.0 30 25   98.18   -20 LegendNANA
12:00 -10.5 -16.5 61 0.0 29 24   98.26   -19 LegendNANA
13:00 -10.4 -17.1 58 0.0 29 24   98.31   -19 LegendNANA
14:00 -10.5 -17.1 58 0.0 27 22   98.33   -19 LegendNANA
15:00 -11.7 -18.0 59 0.0 28 27   98.35   -21 LegendNANA
16:00 -13.0 -18.7 62 0.0 27 22   98.38   -22 LegendNANA
17:00 -14.9 -19.6 67 0.0 27 22   98.44   -24 LegendNANA
18:00 -16.2 -20.3 71 0.0 28 22   98.43   -26 LegendNANA
19:00 -16.0 -20.2 70 0.0 27 21   98.44   -26 LegendNANA
20:00 -16.4 -20.3 72 0.0 26 18   98.37   -25 LegendNANA
21:00 -16.3 -19.6 76 0.0 25 15   98.29   -25 LegendNANA
22:00 -16.3 -19.0 80 0.0 25 16   98.25   -25 LegendNANA
23:00 -16.1 -18.8 79 0.0 25 24   98.17   -26 LegendNANA

Notes on Data Quality.

Legend

  • E = Estimated
  • M = Missing
  • NA = Not Available*
  • [empty] = Indicates an unobserved value
Date modified: